TimeEST,TemperatureF,Dew PointF,Humidity,Sea Level PressureIn,VisibilityMPH,Wind Direction,Wind SpeedMPH,Gust SpeedMPH,PrecipitationIn,Events,Conditions,WindDirDegrees,DateUTC
12:54 AM,36.0,27.0,70,30.14,10.0,SW,5.8,-,N/A,,Overcast,230,2013-01-06 05:54:00
1:54 AM,36.0,26.1,67,30.14,10.0,SW,8.1,-,N/A,,Overcast,230,2013-01-06 06:54:00
2:54 AM,35.1,26.1,70,30.12,10.0,South,4.6,-,N/A,,Overcast,190,2013-01-06 07:54:00
3:54 AM,34.0,26.1,73,30.11,10.0,SSW,4.6,-,N/A,,Overcast,200,2013-01-06 08:54:00
4:54 AM,35.1,26.1,70,30.08,10.0,SSW,5.8,-,N/A,,Overcast,210,2013-01-06 09:54:00
5:54 AM,35.1,26.1,70,30.07,10.0,SSW,6.9,-,N/A,,Overcast,210,2013-01-06 10:54:00
6:54 AM,35.1,27.0,72,30.07,10.0,SSW,5.8,-,N/A,,Overcast,210,2013-01-06 11:54:00
7:54 AM,36.0,27.0,70,30.07,10.0,SSW,9.2,-,N/A,,Overcast,210,2013-01-06 12:54:00
8:54 AM,37.0,28.0,70,30.07,10.0,SSW,8.1,-,N/A,,Overcast,210,2013-01-06 13:54:00
9:54 AM,37.9,28.0,68,30.07,10.0,SW,10.4,-,N/A,,Overcast,220,2013-01-06 14:54:00
10:54 AM,37.9,28.9,70,30.07,10.0,SW,11.5,-,N/A,,Overcast,220,2013-01-06 15:54:00
11:54 AM,37.9,28.9,70,30.04,10.0,SW,10.4,-,N/A,,Overcast,220,2013-01-06 16:54:00
12:54 PM,37.9,28.9,70,30.01,10.0,SW,11.5,-,N/A,,Overcast,230,2013-01-06 17:54:00
1:50 PM,37.4,30.2,75,30.00,10.0,SW,11.5,-,N/A,,Overcast,230,2013-01-06 18:50:00
1:54 PM,37.9,30.0,73,30.02,10.0,SW,9.2,-,N/A,,Overcast,230,2013-01-06 18:54:00
2:54 PM,37.0,30.0,76,30.03,10.0,WSW,12.7,-,0.00,,Overcast,240,2013-01-06 19:54:00
4:29 PM,35.6,32.0,87,30.05,7.0,SW,8.1,-,0.00,,Overcast,230,2013-01-06 21:29:00
4:54 PM,36.0,32.0,86,30.08,7.0,WSW,8.1,-,0.00,,Overcast,250,2013-01-06 21:54:00
5:01 PM,35.6,32.0,87,30.06,7.0,WSW,8.1,-,N/A,,Overcast,250,2013-01-06 22:01:00
5:49 PM,35.6,30.2,81,30.08,9.0,West,15.0,-,N/A,,Overcast,280,2013-01-06 22:49:00
5:54 PM,36.0,30.9,82,30.12,8.0,WNW,17.3,26.5,0.00,,Overcast,290,2013-01-06 22:54:00
6:54 PM,33.1,27.0,78,30.17,10.0,WNW,15.0,-,0.00,,Overcast,290,2013-01-06 23:54:00
7:13 PM,33.8,26.6,75,30.15,10.0,West,15.0,20.7,N/A,,Overcast,280,2013-01-07 00:13:00
7:41 PM,32.0,24.8,75,30.17,9.0,WNW,15.0,-,N/A,,Overcast,290,2013-01-07 00:41:00
7:54 PM,30.9,25.0,79,30.21,9.0,West,13.8,-,N/A,,Overcast,280,2013-01-07 00:54:00
8:54 PM,30.0,23.0,75,30.24,8.0,West,12.7,-,N/A,,Overcast,270,2013-01-07 01:54:00
9:54 PM,28.9,23.0,78,30.26,6.0,West,11.5,-,N/A,,Haze,280,2013-01-07 02:54:00
11:10 PM,28.4,23.0,80,30.27,5.0,West,9.2,-,N/A,,Haze,270,2013-01-07 04:10:00
11:54 PM,28.0,23.0,81,30.32,5.0,West,9.2,-,N/A,,Haze,270,2013-01-07 04:54:00